SCP
0 0 0 0 0 0 0 0 0 0 0 0 0 0 0 0 0 0 0 0 0 0 1 0 0 0 0 -0 -0 -0 -0 -0 -0 -0 -0 -0 -0 -0 -0 -0 -0 -0 -0
0 0 0 0 0 0 0 0 0 0 0 0 0 0 0 0 0 0 0 0 0 0 0 0 0 0 0 -0 -0 -0 -0 -0 -0 -0 -0 -0 -0 -0 -0 -0 -0 -0 -0
0 0 0 0 0 0 0 0 0 0 0 0 0 0 0 0 0 0 0 0 0 0 0 0 0 0 -0 0 0 -0 -0 -0 -0 -0 -0 -0 -0 -0 -0 -0 -0 -0 -0
0 0 0 0 0 0 0 0 0 0 0 0 0 0 0 0 0 0 0 0 0 0 0 0 0 -0 -0 -0 -0 -0 -0 -0 -0 -0 -0 -0 -0 -0 -0 -0 -0 -0 0
0 0 0 0 0 0 0 0 0 0 0 0 0 -0 0 0 0 0 0 0 0 0 0 0 0 0 -0 -0 -0 -0 -0 -0 -0 -0 -0 -0 -0 -0 -0 -0 -0 -0 -0
0 0 0 0 0 0 0 0 0 0 0 0 0 0 0 0 0 0 0 0 0 0 0 0 0 0 -0 -0 -0 -0 -0 -0 -0 -0 -0 -0 -0 -0 -0 -0 -0 -0 -0
0 0 0 0 0 0 0 0 0 0 0 0 0 0 0 0 0 0 0 0 0 0 0 0 0 0 0 -0 -0 -0 -0 -0 -0 -0 -0 -0 -0 -0 -0 -0 0 -0 -0
0 0 0 0 0 0 0 0 0 0 0 0 0 0 0 0 0 0 0 0 0 0 0 0 0 0 0 0 0 -0 -0 -0 -0 -0 -0 -0 -0 -0 -0 -0 -0 -0 -0
0 0 0 0 0 0 0 0 0 0 0 0 0 0 0 0 0 0 0 0 0 0 0 0 0 0 0 0 0 -0 -0 -0 -0 -0 -0 -0 -0 -0 -0 -0 -0 -0 -0
0 0 0 0 0 0 0 0 0 0 0 0 0 0 0 0 0 0 0 0 0 0 0 0 0 -0 0 0 -0 0 -0 -0 -0 -0 -0 -0 -0 -0 -0 -0 -0 -0 -0
0 0 0 0 0 0 0 0 0 0 0 0 0 0 0 0 0 0 0 0 0 0 0 0 0 0 0 0 0 0 -0 -0 -0 -0 -0 -0 -0 -0 -0 -0 -0 -0 -0
0 0 0 0 0 0 0 0 0 -0 0 0 0 0 0 0 0 0 0 0 0 0 0 0 0 0 0 0 -0 -0 -0 -0 -0 -0 -0 -0 -0 -0 -0 -0 -0 -0 -0
0 0 0 0 0 0 0 0 -0 -0 -0 -0 -0 -0 0 0 0 0 0 0 0 0 0 0 0 0 0 0 0 -0 -0 -0 -0 -0 -0 -0 -0 -0 -0 -0 -0 -0 -0
0 0 0 0 0 0 0 0 0 -0 -0 -0 0 0 0 0 0 0 0 0 0 0 0 0 0 0 0 0 0 -0 -0 -0 -0 -0 -0 -0 -0 -0 -0 -0 -0 -0 -0
0 -0 0 0 0 0 0 0 0 0 0 0 0 0 0 0 0 0 0 0 0 0 0 0 0 0 0 0 0 0 -0 -0 -0 -0 -0 -0 -0 -0 -0 -0 -0 -0 -0
0 -0 -0 0 0 0 0 0 0 -0 -0 0 -0 -0 0 0 0 0 0 0 0 0 0 0 0 0 0 0 0 -0 0 0 -0 -0 -0 -0 -0 -0 -0 -0 -0 -0 -0
0 0 -0 0 0 0 -0 0 0 -0 0 0 0 0 0 0 0 0 0 0 0 0 0 0 0 0 0 0 0 0 0 0 0 -0 -0 -0 -0 -0 -0 -0 -0 -0 -0
0 0 -0 -0 0 0 -0 -0 0 0 0 -0 0 0 0 0 0 0 0 0 0 0 0 0 0 0 0 0 0 0 0 0 0 -0 -0 -0 0 -0 -0 -0 -0 -0 -0
0 0 0 -0 -0 -0 -0 -0 -0 -0 -0 0 0 0 0 0 0 0 0 0 0 0 0 0 0 0 0 0 0 0 0 0 0 -0 -0 -0 0 0 -0 -0 -0 -0 -0
0 0 0 -0 -0 -0 -0 -0 -0 -0 -0 -0 0 0 0 0 0 0 0 0 -0 0 0 0 0 0 0 0 0 0 0 0 0 0 0 0 0 0 0 -0 -0 0 0
0 0 0 0 -0 -0 -0 -0 0 0 0 0 -0 0 0 0 0 0 0 0 -0 -0 0 0 0 0 0 0 0 0 0 0 0 0 0 0 0 0 0 0 0 0 0
0 0 0 0 0 0 -0 -0 0 0 0 0 0 -0 0 0 0 0 0 0 -0 -0 0 0 0 0 0 0 0 0 0 0 0 0 0 0 0 0 0 0 0 0 0
0 0 0 0 0 0 0 0 0 0 0 0 -0 0 0 0 0 0 0 -0 0 0 -0 0 0 0 0 0 0 0 0 0 0 0 0 0 0 0 0 0 0 0 0
0 0 0 0 0 0 0 0 -0 0 0 0 0 0 0 0 0 0 -0 -0 0 0 0 0 0 0 0 0 0 0 0 0 0 0 0 0 0 0 0 0 0 0 0
0 0 0 0 0 0 0 -0 0 0 0 0 0 0 0 0 0 0 0 0 0 0 0 0 0 -0 -0 -0 -0 0 0 0 0 0 0 0 0 0 0 0 0 0 0
0 0 0 0 0 0 0 0 0 0 0 0 0 0 0 0 -0 -0 -0 0 0 0 -0 -0 0 0 -0 -0 -0 0 0 0 0 0 0 0 0 0 0 0 0 0 0
Wind_Speed_500mb
22 22 27 28 31 33 34 29 28 28 26 24 20 24 22 18 16 20 33 44 42 42 45 38 38 55 69 39 46 49 52 46 37 29 21 23 33 28 31 28 31 26 23
20 24 26 29 29 29 27 28 31 31 26 23 17 10 4 2 12 13 19 35 36 39 42 34 42 77 43 44 57 52 52 44 33 22 23 32 33 32 30 29 26 24 26
19 23 28 29 28 23 31 35 33 24 20 21 12 10 5 11 12 7 15 27 30 35 32 32 51 33 43 53 53 55 46 42 30 28 35 35 32 29 33 26 27 22 17
17 21 27 28 25 29 32 33 34 32 21 19 6 9 7 9 11 7 10 23 28 26 35 39 55 62 54 57 57 55 47 35 33 42 36 35 30 35 29 26 24 18 20
15 20 26 27 33 28 26 32 31 33 29 22 18 11 8 3 9 7 8 20 27 23 30 52 49 59 62 61 63 52 42 37 44 41 37 41 38 35 29 21 15 19 20
13 18 22 25 29 33 26 28 28 25 26 24 22 14 15 14 10 8 10 12 21 21 37 47 47 67 61 56 60 52 47 44 44 44 42 36 36 31 28 24 23 21 17
10 15 18 22 25 30 25 25 21 19 18 18 17 27 20 18 18 18 16 15 16 24 47 46 50 62 67 63 63 55 52 49 47 48 43 46 39 32 23 20 20 18 18
7 11 15 21 29 28 20 19 19 16 18 24 17 15 13 30 23 28 32 25 29 43 43 44 58 55 80 76 60 55 59 53 54 48 43 40 33 27 23 21 19 16 15
2 7 15 20 28 26 18 18 13 15 12 16 20 13 9 15 37 37 36 43 41 48 52 39 42 76 95 73 62 59 59 57 53 44 40 35 29 27 24 17 15 14 21
1 6 15 20 23 24 16 13 14 18 15 12 12 10 15 25 26 36 31 39 39 45 47 65 68 62 57 61 52 58 55 54 48 42 37 31 25 25 20 18 26 25 26
2 6 12 16 18 16 14 8 12 18 15 11 12 9 27 27 29 54 47 46 50 55 58 64 62 65 57 47 57 57 53 47 43 37 32 31 24 27 31 28 21 17 22
4 4 10 16 18 16 7 9 10 11 12 9 10 10 23 34 37 45 55 52 58 63 61 69 80 61 62 64 60 53 47 41 39 30 28 26 27 29 24 20 15 10 20
6 3 6 12 16 17 8 7 7 8 9 11 9 12 17 27 39 47 47 61 59 65 70 80 86 72 68 65 57 49 40 36 30 24 22 21 19 18 17 15 13 19 24
7 4 4 8 13 11 9 8 9 6 8 14 19 19 16 39 37 45 59 62 66 67 70 74 85 80 68 59 52 43 38 29 25 18 16 17 14 13 16 17 17 18 26
9 7 2 5 9 11 10 8 7 8 17 23 22 21 28 38 52 51 48 46 45 53 58 72 74 71 62 58 51 44 39 28 20 17 16 13 11 12 14 14 15 25 24
10 9 5 3 6 10 6 15 13 11 28 23 14 20 31 40 52 46 45 33 32 55 66 67 73 64 54 48 40 37 35 28 19 15 14 11 9 11 10 9 14 18 14
10 10 10 6 4 1 4 14 18 14 25 25 24 23 37 34 32 39 24 34 35 62 83 68 68 61 53 48 41 36 29 24 21 17 13 9 6 12 9 10 10 10 12
11 11 11 8 7 5 7 10 19 19 17 18 18 19 17 26 36 39 37 29 48 61 69 77 66 60 54 46 42 35 31 23 21 16 9 4 5 9 6 7 7 9 17
13 12 13 12 9 9 11 15 17 19 22 22 25 23 21 28 36 41 38 41 49 48 52 56 66 59 51 42 38 31 26 21 18 13 6 2 9 8 2 7 8 17 21
15 15 16 15 13 10 16 16 16 17 21 24 23 29 28 36 40 41 34 27 27 39 48 63 63 59 50 46 37 32 29 24 19 14 9 3 12 4 4 7 14 19 21
19 18 19 20 19 14 16 18 18 16 21 22 21 32 37 37 39 35 35 27 28 37 49 63 63 59 53 49 43 38 31 29 22 15 7 4 5 2 6 10 17 18 19
23 21 20 25 24 21 19 17 19 19 19 23 22 31 39 41 42 42 30 17 23 23 53 63 63 58 53 52 48 42 37 35 28 18 9 1 4 3 6 14 17 16 16
25 24 23 26 29 27 25 21 24 22 18 19 27 35 40 43 44 45 38 23 22 26 41 44 54 51 51 48 45 47 43 35 24 16 11 5 9 6 9 18 16 15 14
25 24 23 25 30 29 29 25 28 30 25 23 27 31 39 39 42 43 39 32 28 28 31 40 52 48 46 46 48 43 43 38 24 21 16 16 15 12 12 17 19 15 12
22 21 22 26 30 30 30 31 31 32 32 31 36 38 39 39 38 44 41 35 34 33 31 35 37 49 49 50 49 47 46 40 31 26 21 22 24 21 19 18 15 12 11
20 21 24 24 31 33 32 31 36 36 35 33 39 40 38 38 38 41 41 43 38 34 33 35 41 45 44 47 45 46 44 37 33 30 31 31 31 27 20 24 21 16 11
Wind_Direction_500mb
346 354 352 348 343 341 333 334 332 333 330 320 306 299 299 284 273 271 233 217 207 216 216 219 208 191 161 157 156 159 152 149 144 135 122 115 121 121 106 108 110 108 100
354 359 354 347 349 355 7 2 345 335 335 326 323 331 351 271 264 271 227 203 205 207 211 215 202 158 141 165 155 153 151 149 144 136 128 123 128 124 123 114 114 103 97
358 1 354 355 0 14 20 6 352 345 341 336 332 346 282 253 240 251 185 189 201 207 200 202 191 134 150 153 150 152 150 145 140 133 127 129 130 136 118 120 113 107 110
5 360 357 1 10 21 17 10 359 5 357 343 14 359 249 259 226 225 178 191 195 201 197 195 153 143 159 154 152 151 147 143 135 130 130 128 125 113 113 112 110 114 94
5 0 0 9 6 20 24 11 3 13 16 30 41 36 5 230 217 195 160 189 193 185 193 178 154 154 154 150 149 148 141 138 130 131 121 114 116 117 114 112 102 103 92
5 3 5 5 4 8 24 18 18 35 32 43 41 42 52 64 94 138 110 159 179 185 187 162 184 155 153 149 150 141 139 130 130 124 125 123 115 106 98 87 87 86 83
11 5 5 6 5 16 18 25 26 30 30 27 59 70 64 62 95 99 118 124 138 163 167 168 140 145 151 151 139 139 130 130 126 123 114 104 106 105 100 90 94 85 75
24 15 19 12 10 11 31 37 27 38 32 52 45 41 70 82 92 104 110 113 115 121 131 164 155 160 150 138 138 132 129 124 116 113 112 113 112 99 95 101 94 88 77
24 358 12 8 10 8 38 32 23 30 25 47 29 73 69 89 86 104 110 111 116 116 128 124 127 138 125 125 127 125 120 121 118 122 116 108 110 109 110 112 110 85 75
207 343 2 12 15 15 29 42 25 57 43 42 41 66 120 122 104 84 102 112 116 109 123 136 134 141 133 129 126 125 128 125 122 121 122 116 114 112 95 79 76 73 68
219 342 5 10 10 22 12 59 63 54 53 50 77 117 135 132 112 116 94 112 106 126 116 128 126 130 132 129 135 138 135 133 126 124 114 108 101 86 85 83 77 83 85
209 317 359 6 10 20 33 57 63 33 45 79 75 134 147 147 139 122 115 111 114 117 134 141 140 140 142 141 140 140 138 123 115 106 99 96 90 97 95 86 87 89 95
208 271 359 1 18 32 76 82 68 42 36 102 172 152 166 152 132 150 132 119 115 119 132 143 137 141 143 141 140 137 129 119 115 108 110 110 93 77 68 60 48 63 94
213 219 347 354 17 37 86 84 79 32 82 101 134 153 165 160 170 155 141 133 120 116 126 123 138 139 141 141 139 135 127 130 123 118 130 99 83 59 40 39 53 73 93
216 209 279 15 33 36 123 123 87 83 104 113 117 153 157 150 154 152 148 144 145 125 118 130 129 134 141 144 145 142 139 138 138 141 116 106 74 47 32 38 68 99 96
218 213 220 290 348 37 91 135 111 108 111 106 127 140 153 159 164 163 158 173 164 159 137 138 139 143 147 147 146 144 144 150 138 130 117 101 75 34 33 88 102 107 97
223 223 216 229 258 43 67 154 140 134 126 116 111 147 170 175 177 172 170 175 176 161 148 141 145 149 156 158 157 161 155 151 142 141 129 110 53 16 77 107 93 99 89
237 234 224 227 228 213 160 161 160 160 153 162 160 149 142 178 178 176 166 169 166 160 164 153 152 156 158 162 163 166 162 161 153 143 141 133 22 33 88 81 79 90 107
240 240 224 224 234 199 195 189 175 177 185 189 188 201 186 180 182 175 165 164 165 172 175 174 165 166 165 169 172 169 168 177 168 155 156 181 2 28 78 74 86 123 107
236 241 230 226 235 217 197 198 196 188 185 188 190 193 189 185 183 175 174 170 181 193 191 183 175 172 175 176 180 181 179 178 177 164 154 20 332 333 78 84 134 120 107
234 236 236 227 224 225 210 212 215 202 185 186 182 181 180 189 188 186 174 174 181 200 197 185 182 184 187 186 188 194 194 184 176 171 171 54 3 72 113 145 144 130 112
236 238 234 226 220 215 231 219 211 215 206 196 188 179 175 180 187 190 196 197 215 203 204 195 194 197 200 200 202 202 200 193 175 184 177 309 160 190 163 159 152 138 118
234 244 239 227 219 216 218 229 217 214 216 213 205 190 179 180 190 196 206 208 215 226 234 233 220 213 214 215 215 206 205 205 207 197 188 237 206 208 181 163 158 140 124
234 246 244 221 218 220 218 216 224 215 214 213 208 202 190 188 197 205 216 226 219 218 224 226 220 226 228 226 218 218 208 203 204 197 229 247 231 222 196 185 170 159 138
237 251 240 231 213 214 217 219 217 219 220 219 208 200 201 200 200 211 217 223 207 211 216 220 224 231 238 235 227 219 211 210 215 223 239 244 232 221 206 190 181 176 161
236 256 247 242 215 200 220 220 214 221 229 212 208 201 202 205 213 214 218 218 212 215 228 231 228 232 231 232 234 231 231 227 236 236 242 238 232 220 215 209 196 190 181
Wind_Speed_850mb
22 22 27 28 31 33 34 29 28 28 26 24 20 24 22 18 16 20 33 44 42 42 45 38 38 55 69 39 46 49 52 46 37 29 21 23 33 28 31 28 31 26 23
20 24 26 29 29 29 27 28 31 31 26 23 17 10 4 2 12 13 19 35 36 39 42 34 42 77 43 44 57 52 52 44 33 22 23 32 33 32 30 29 26 24 26
19 23 28 29 28 23 31 35 33 24 20 21 12 10 5 11 12 7 15 27 30 35 32 32 51 33 43 53 53 55 46 42 30 28 35 35 32 29 33 26 27 22 17
17 21 27 28 25 29 32 33 34 32 21 19 6 9 7 9 11 7 10 23 28 26 35 39 55 62 54 57 57 55 47 35 33 42 36 35 30 35 29 26 24 18 20
15 20 26 27 33 28 26 32 31 33 29 22 18 11 8 3 9 7 8 20 27 23 30 52 49 59 62 61 63 52 42 37 44 41 37 41 38 35 29 21 15 19 20
13 18 22 25 29 33 26 28 28 25 26 24 22 14 15 14 10 8 10 12 21 21 37 47 47 67 61 56 60 52 47 44 44 44 42 36 36 31 28 24 23 21 17
10 15 18 22 25 30 25 25 21 19 18 18 17 27 20 18 18 18 16 15 16 24 47 46 50 62 67 63 63 55 52 49 47 48 43 46 39 32 23 20 20 18 18
7 11 15 21 29 28 20 19 19 16 18 24 17 15 13 30 23 28 32 25 29 43 43 44 58 55 80 76 60 55 59 53 54 48 43 40 33 27 23 21 19 16 15
2 7 15 20 28 26 18 18 13 15 12 16 20 13 9 15 37 37 36 43 41 48 52 39 42 76 95 73 62 59 59 57 53 44 40 35 29 27 24 17 15 14 21
1 6 15 20 23 24 16 13 14 18 15 12 12 10 15 25 26 36 31 39 39 45 47 65 68 62 57 61 52 58 55 54 48 42 37 31 25 25 20 18 26 25 26
2 6 12 16 18 16 14 8 12 18 15 11 12 9 27 27 29 54 47 46 50 55 58 64 62 65 57 47 57 57 53 47 43 37 32 31 24 27 31 28 21 17 22
4 4 10 16 18 16 7 9 10 11 12 9 10 10 23 34 37 45 55 52 58 63 61 69 80 61 62 64 60 53 47 41 39 30 28 26 27 29 24 20 15 10 20
6 3 6 12 16 17 8 7 7 8 9 11 9 12 17 27 39 47 47 61 59 65 70 80 86 72 68 65 57 49 40 36 30 24 22 21 19 18 17 15 13 19 24
7 4 4 8 13 11 9 8 9 6 8 14 19 19 16 39 37 45 59 62 66 67 70 74 85 80 68 59 52 43 38 29 25 18 16 17 14 13 16 17 17 18 26
9 7 2 5 9 11 10 8 7 8 17 23 22 21 28 38 52 51 48 46 45 53 58 72 74 71 62 58 51 44 39 28 20 17 16 13 11 12 14 14 15 25 24
10 9 5 3 6 10 6 15 13 11 28 23 14 20 31 40 52 46 45 33 32 55 66 67 73 64 54 48 40 37 35 28 19 15 14 11 9 11 10 9 14 18 14
10 10 10 6 4 1 4 14 18 14 25 25 24 23 37 34 32 39 24 34 35 62 83 68 68 61 53 48 41 36 29 24 21 17 13 9 6 12 9 10 10 10 12
11 11 11 8 7 5 7 10 19 19 17 18 18 19 17 26 36 39 37 29 48 61 69 77 66 60 54 46 42 35 31 23 21 16 9 4 5 9 6 7 7 9 17
13 12 13 12 9 9 11 15 17 19 22 22 25 23 21 28 36 41 38 41 49 48 52 56 66 59 51 42 38 31 26 21 18 13 6 2 9 8 2 7 8 17 21
15 15 16 15 13 10 16 16 16 17 21 24 23 29 28 36 40 41 34 27 27 39 48 63 63 59 50 46 37 32 29 24 19 14 9 3 12 4 4 7 14 19 21
19 18 19 20 19 14 16 18 18 16 21 22 21 32 37 37 39 35 35 27 28 37 49 63 63 59 53 49 43 38 31 29 22 15 7 4 5 2 6 10 17 18 19
23 21 20 25 24 21 19 17 19 19 19 23 22 31 39 41 42 42 30 17 23 23 53 63 63 58 53 52 48 42 37 35 28 18 9 1 4 3 6 14 17 16 16
25 24 23 26 29 27 25 21 24 22 18 19 27 35 40 43 44 45 38 23 22 26 41 44 54 51 51 48 45 47 43 35 24 16 11 5 9 6 9 18 16 15 14
25 24 23 25 30 29 29 25 28 30 25 23 27 31 39 39 42 43 39 32 28 28 31 40 52 48 46 46 48 43 43 38 24 21 16 16 15 12 12 17 19 15 12
22 21 22 26 30 30 30 31 31 32 32 31 36 38 39 39 38 44 41 35 34 33 31 35 37 49 49 50 49 47 46 40 31 26 21 22 24 21 19 18 15 12 11
20 21 24 24 31 33 32 31 36 36 35 33 39 40 38 38 38 41 41 43 38 34 33 35 41 45 44 47 45 46 44 37 33 30 31 31 31 27 20 24 21 16 11
Wind_Direction_850mb
346 354 352 348 343 341 333 334 332 333 330 320 306 299 299 284 273 271 233 217 207 216 216 219 208 191 161 157 156 159 152 149 144 135 122 115 121 121 106 108 110 108 100
354 359 354 347 349 355 7 2 345 335 335 326 323 331 351 271 264 271 227 203 205 207 211 215 202 158 141 165 155 153 151 149 144 136 128 123 128 124 123 114 114 103 97
358 1 354 355 0 14 20 6 352 345 341 336 332 346 282 253 240 251 185 189 201 207 200 202 191 134 150 153 150 152 150 145 140 133 127 129 130 136 118 120 113 107 110
5 360 357 1 10 21 17 10 359 5 357 343 14 359 249 259 226 225 178 191 195 201 197 195 153 143 159 154 152 151 147 143 135 130 130 128 125 113 113 112 110 114 94
5 0 0 9 6 20 24 11 3 13 16 30 41 36 5 230 217 195 160 189 193 185 193 178 154 154 154 150 149 148 141 138 130 131 121 114 116 117 114 112 102 103 92
5 3 5 5 4 8 24 18 18 35 32 43 41 42 52 64 94 138 110 159 179 185 187 162 184 155 153 149 150 141 139 130 130 124 125 123 115 106 98 87 87 86 83
11 5 5 6 5 16 18 25 26 30 30 27 59 70 64 62 95 99 118 124 138 163 167 168 140 145 151 151 139 139 130 130 126 123 114 104 106 105 100 90 94 85 75
24 15 19 12 10 11 31 37 27 38 32 52 45 41 70 82 92 104 110 113 115 121 131 164 155 160 150 138 138 132 129 124 116 113 112 113 112 99 95 101 94 88 77
24 358 12 8 10 8 38 32 23 30 25 47 29 73 69 89 86 104 110 111 116 116 128 124 127 138 125 125 127 125 120 121 118 122 116 108 110 109 110 112 110 85 75
207 343 2 12 15 15 29 42 25 57 43 42 41 66 120 122 104 84 102 112 116 109 123 136 134 141 133 129 126 125 128 125 122 121 122 116 114 112 95 79 76 73 68
219 342 5 10 10 22 12 59 63 54 53 50 77 117 135 132 112 116 94 112 106 126 116 128 126 130 132 129 135 138 135 133 126 124 114 108 101 86 85 83 77 83 85
209 317 359 6 10 20 33 57 63 33 45 79 75 134 147 147 139 122 115 111 114 117 134 141 140 140 142 141 140 140 138 123 115 106 99 96 90 97 95 86 87 89 95
208 271 359 1 18 32 76 82 68 42 36 102 172 152 166 152 132 150 132 119 115 119 132 143 137 141 143 141 140 137 129 119 115 108 110 110 93 77 68 60 48 63 94
213 219 347 354 17 37 86 84 79 32 82 101 134 153 165 160 170 155 141 133 120 116 126 123 138 139 141 141 139 135 127 130 123 118 130 99 83 59 40 39 53 73 93
216 209 279 15 33 36 123 123 87 83 104 113 117 153 157 150 154 152 148 144 145 125 118 130 129 134 141 144 145 142 139 138 138 141 116 106 74 47 32 38 68 99 96
218 213 220 290 348 37 91 135 111 108 111 106 127 140 153 159 164 163 158 173 164 159 137 138 139 143 147 147 146 144 144 150 138 130 117 101 75 34 33 88 102 107 97
223 223 216 229 258 43 67 154 140 134 126 116 111 147 170 175 177 172 170 175 176 161 148 141 145 149 156 158 157 161 155 151 142 141 129 110 53 16 77 107 93 99 89
237 234 224 227 228 213 160 161 160 160 153 162 160 149 142 178 178 176 166 169 166 160 164 153 152 156 158 162 163 166 162 161 153 143 141 133 22 33 88 81 79 90 107
240 240 224 224 234 199 195 189 175 177 185 189 188 201 186 180 182 175 165 164 165 172 175 174 165 166 165 169 172 169 168 177 168 155 156 181 2 28 78 74 86 123 107
236 241 230 226 235 217 197 198 196 188 185 188 190 193 189 185 183 175 174 170 181 193 191 183 175 172 175 176 180 181 179 178 177 164 154 20 332 333 78 84 134 120 107
234 236 236 227 224 225 210 212 215 202 185 186 182 181 180 189 188 186 174 174 181 200 197 185 182 184 187 186 188 194 194 184 176 171 171 54 3 72 113 145 144 130 112
236 238 234 226 220 215 231 219 211 215 206 196 188 179 175 180 187 190 196 197 215 203 204 195 194 197 200 200 202 202 200 193 175 184 177 309 160 190 163 159 152 138 118
234 244 239 227 219 216 218 229 217 214 216 213 205 190 179 180 190 196 206 208 215 226 234 233 220 213 214 215 215 206 205 205 207 197 188 237 206 208 181 163 158 140 124
234 246 244 221 218 220 218 216 224 215 214 213 208 202 190 188 197 205 216 226 219 218 224 226 220 226 228 226 218 218 208 203 204 197 229 247 231 222 196 185 170 159 138
237 251 240 231 213 214 217 219 217 219 220 219 208 200 201 200 200 211 217 223 207 211 216 220 224 231 238 235 227 219 211 210 215 223 239 244 232 221 206 190 181 176 161
236 256 247 242 215 200 220 220 214 221 229 212 208 201 202 205 213 214 218 218 212 215 228 231 228 232 231 232 234 231 231 227 236 236 242 238 232 220 215 209 196 190 181